User: anonymous   Login
Location: NJAA Observatory
(40.6819°N, 74.8979°W)
Time: 20:11:15
(UTC-04:00)
Language:

ALOS - Orbit

View from above orbital plane
View from above orbital plane
View from above satellite
View from above satellite

Ground track
Ground track

The orbit data is extracted from the following two-line orbital elements,

1 28931U 06002A   15147.88206247  .00000236  00000-0  56030-4 0  9995
2 28931 097.9327 198.0965 0002087 123.7981 236.3423 14.61863319497676
Epoch (UTC): 27 May 2015 21:10:10
Eccentricity: 0.0002087
inclination: 97.9327°
perigee height: 685 km
apogee height: 688 km
right ascension of ascending node: 198.0965°
argument of perigee: 123.7981°
revolutions per day: 14.61863319
mean anomaly at epoch: 236.3423°
orbit number at epoch: 49767

The dashed part of the orbit path shows where the satellite is in the earth's shadow,  

DLR